This is the latest recevied weather packets stored in our database for station/object N3SBK. If no packets are shown the sender has not sent any weather packets the latest 10 day(s).
| Time | Temp. | Humidity | Pressure | Rain* | Wind** | Luminosity | Snow |
|---|---|---|---|---|---|---|---|
| 1788094450 | 19.44° C | 91% | 1013.7 hPa | 0 mm | - | 66 W/m² | - |
| 1788094148 | 19.44° C | 91% | 1013.3 hPa | 0 mm | - | 64 W/m² | - |
| 1788093843 | 19.44° C | 90% | 1013.5 hPa | 0 mm | - | 58 W/m² | - |
| 1788093539 | 18.89° C | 91% | 1013.6 hPa | 0 mm | - | 49 W/m² | - |
| 1788093236 | 18.89° C | 91% | 1013.5 hPa | 0 mm | - | 50 W/m² | - |
| 1788092934 | 18.89° C | 91% | 1013.5 hPa | 0 mm | - | 46 W/m² | - |
| 1788092628 | 18.89° C | 91% | 1013.6 hPa | 0 mm | - | 44 W/m² | - |
| 1788092323 | 18.33° C | 91% | 1013.6 hPa | 0 mm | - | 41 W/m² | - |
| 1788092023 | 18.33° C | 92% | 1013.6 hPa | 0 mm | - | 36 W/m² | - |
| 1788091718 | 18.33° C | 92% | 1013.4 hPa | 0 mm | - | 31 W/m² | - |
| 1788091414 | 18.33° C | 92% | 1013.5 hPa | 0 mm | - | 26 W/m² | - |
| 1788091110 | 18.33° C | 92% | 1013.5 hPa | 0 mm | - | 25 W/m² | - |
| 1788090806 | 17.78° C | 93% | 1013.6 hPa | 0 mm | - | 18 W/m² | - |
| 1788090501 | 17.78° C | 93% | 1013.7 hPa | 0 mm | - | 18 W/m² | - |
| 1788090198 | 17.78° C | 93% | 1013.6 hPa | 0 mm | - | 17 W/m² | - |
| 1788089892 | 17.78° C | 93% | 1013.5 hPa | 0 mm | - | 12 W/m² | - |
| 1788089588 | 17.78° C | 93% | 1013.5 hPa | 0 mm | - | 11 W/m² | - |
| 1788089283 | 17.78° C | 93% | 1013.6 hPa | 0 mm | - | 7 W/m² | - |
| 1788088979 | 17.22° C | 93% | 1013.7 hPa | 0 mm | - | 7 W/m² | - |
| 1788088675 | 17.22° C | 92% | 1013.5 hPa | 0 mm | - | 7 W/m² | - |
| 1788088370 | 17.78° C | 92% | 1013.6 hPa | 0 mm | - | 7 W/m² | - |
| 1788088070 | 17.78° C | 92% | 1013.5 hPa | 0 mm | - | 7 W/m² | - |
| 1788087767 | 17.78° C | 93% | 1013.4 hPa | 0 mm | - | 5 W/m² | - |
| 1788087465 | 17.78° C | 93% | 1013.3 hPa | 0 mm | - | 4 W/m² | - |
| 1788087162 | 17.78° C | 93% | 1013.4 hPa | 0 mm | - | 3 W/m² | - |
* Rain latest hour (hover to see other rain measurements)
** Current wind speed in m/s (hover to see current wind gust speed)